Back to catalog

BREEZE-M DEB

TANK

AliveHEO
NORAD 36360·DEBRIS·🇷🇺 Russia

Launched Jan 28, 2010 from Baikonur Cosmodrome

Loading…

Next Passes (next 24 hours)

TLE

FreshSource: Space-Track

Epoch: Sep 10, 2026, 20:37 UTC

1 36360U 10002C   26253.85913561 -.00000050  00000-0  28085-2 0  9998
2 36360  45.1804 274.4245 6950872 251.8312  25.9041  2.34909290141970

Track BREEZE-M DEB in real time with AllMySat

Download on the App Store